FW3096 Weather Reports


Display with metric or nautical units.
time (UTC)temp
F
wind
direction
speed
MPH
gust
MPH
rain 1hr
in
rain 24hr
in
rain mn
in
humidity
%
barometer
mb
20260502152009 54 335 3.0 6.0 0.00 0.00 0.00 57 1014.2
20260502151507 54 113 2.0 6.0 0.00 0.00 0.00 63 1014.3
20260502151007 54 335 1.0 6.0 0.00 0.00 0.00 62 1014.3
20260502130506 50 291 2.0 8.0 0.00 0.00 0.00 79 1014.3
20260502123506 50 324 2.0 5.0 0.00 0.00 0.00 79 1014.3
20260502123007 50 321 3.0 5.0 0.00 0.00 0.00 79 1014.3
20260502122507 50 335 2.0 6.0 0.00 0.00 0.00 79 1014.3
20260502122007 50 355 3.0 10.0 0.00 0.00 0.00 80 1014.3
20260502121507 50 332 5.0 10.0 0.00 0.00 0.00 80 1014.2
20260502121009 50 26 3.0 8.0 0.00 0.00 0.00 81 1014.1
20260502120506 50 289 3.0 7.0 0.00 0.00 0.00 82 1014.0
20260502115508 50 345 2.0 6.0 0.00 0.00 0.00 82 1013.8
20260502115007 50 291 1.0 6.0 0.00 0.00 0.00 83 1013.8
20260502113506 50 343 0.0 6.0 0.00 0.00 0.00 83 1013.8
20260502113009 49 291 1.0 9.0 0.00 0.00 0.00 83 1013.8
20260502112506 49 287 1.0 6.0 0.00 0.00 0.00 83 1013.8
20260502112007 49 298 2.0 6.0 0.00 0.00 0.00 83 1013.9
20260502111508 49 301 2.0 8.0 0.00 0.00 0.00 83 1013.8
20260502111007 49 302 4.0 10.0 0.00 0.00 0.00 83 1013.7
20260502110009 49 297 4.0 6.0 0.00 0.00 0.00 84 1013.7
20260502105506 49 282 3.0 6.0 0.00 0.00 0.00 85 1013.6
20260502105007 49 296 2.0 5.0 0.00 0.00 0.00 85 1013.5
20260502104009 49 311 2.0 8.0 0.00 0.00 0.00 86 1013.4
20260502103506 49 184 0.0 3.0 0.00 0.00 0.00 86 1013.3
20260502103007 49 314 1.0 4.0 0.00 0.00 0.00 86 1013.1
20260502102508 49 300 2.0 4.0 0.00 0.00 0.00 86 1013.1
20260502101506 49 298 1.0 4.0 0.00 0.00 0.00 86 1013.1
20260502101009 49 292 1.0 4.0 0.00 0.00 0.00 86 1013.0
20260502100507 49 301 2.0 4.0 0.00 0.00 0.00 86 1013.1
20260502091506 50 302 0.0 0.0 0.00 0.00 0.00 84 1013.3
20260502090506 50 302 0.0 0.0 0.00 0.00 0.00 84 1013.3
20260502071506 51 355 0.0 0.0 0.00 0.00 0.00 80 1012.8
20260502071008 51 355 0.0 0.0 0.00 0.00 0.00 81 1012.8
20260502070507 51 355 0.0 4.0 0.00 0.00 0.00 81 1012.8
20260502070008 51 355 0.0 4.0 0.00 0.00 0.00 81 1013.0
20260502065507 51 281 0.0 0.0 0.00 0.00 0.00 82 1013.0
20260502064506 51 254 0.0 0.0 0.00 0.00 0.00 83 1013.0
20260502063506 51 254 0.0 0.0 0.00 0.00 0.00 83 1013.0
20260502063006 51 254 0.0 0.0 0.00 0.00 0.00 83 1013.1
20260502062507 51 254 0.0 0.0 0.00 0.00 0.00 83 1013.1
20260502062006 51 254 0.0 0.0 0.00 0.00 0.00 83 1013.1
20260502061506 51 254 0.0 0.0 0.00 0.00 0.00 83 1013.1
20260502061008 51 254 0.0 0.0 0.00 0.00 0.00 83 1013.0
20260502060505 51 254 0.0 0.0 0.00 0.00 0.00 83 1013.1
20260502060006 51 254 0.0 0.0 0.00 0.00 0.00 83 1013.1
20260502055006 51 254 0.0 0.0 0.00 0.00 0.00 83 1013.2
20260502054505 51 254 0.0 0.0 0.00 0.00 0.00 84 1013.3
20260502054007 51 254 0.0 0.0 0.00 0.00 0.00 84 1013.3
20260502053505 51 254 0.0 0.0 0.00 0.00 0.00 84 1013.3
20260502053007 51 254 0.0 0.0 0.00 0.00 0.00 84 1013.4
20260502052507 51 254 0.0 0.0 0.00 0.00 0.00 83 1013.5
20260502052006 51 254 0.0 0.0 0.00 0.00 0.00 83 1013.5
20260502051506 51 254 0.0 0.0 0.00 0.00 0.00 83 1013.4
20260502051008 51 175 0.0 0.0 0.00 0.00 0.00 83 1013.2
20260502050506 51 175 0.0 0.0 0.00 0.00 0.00 83 1013.3
20260502050015 51 175 0.0 0.0 0.00 0.00 0.00 82 1013.4
20260502045506 51 175 0.0 0.0 0.00 0.00 0.00 82 1013.5
20260502045007 51 175 0.0 0.0 0.00 0.00 0.00 82 1013.4
20260502044508 51 175 0.0 0.0 0.00 0.00 0.00 82 1013.4
20260502044007 51 175 0.0 0.0 0.00 0.00 0.00 82 1013.4
20260502043009 51 175 0.0 0.0 0.00 0.00 0.00 81 1013.5
20260502042506 51 175 0.0 0.0 0.00 0.00 0.00 81 1013.5
20260502042007 51 175 0.0 0.0 0.00 0.00 0.00 81 1013.3
20260502041007 51 175 0.0 0.0 0.00 0.00 0.00 80 1013.3
20260502040506 52 175 0.0 0.0 0.00 0.00 0.00 80 1013.3
20260502035507 52 175 0.0 0.0 0.00 0.00 0.00 79 1013.3
20260502035008 52 175 0.0 0.0 0.00 0.00 0.00 79 1013.3
20260502034508 52 175 0.0 0.0 0.00 0.00 0.00 79 1013.2
20260502034008 52 175 0.0 0.0 0.00 0.00 0.00 79 1013.1
20260502033507 52 175 0.0 0.0 0.00 0.00 0.00 78 1013.2
20260502033010 52 175 0.0 0.0 0.00 0.00 0.00 78 1013.1
20260502032507 52 175 0.0 0.0 0.00 0.00 0.00 78 1013.1
20260502032008 52 175 0.0 1.0 0.00 0.00 0.00 78 1013.1
20260502031509 52 175 0.0 1.0 0.00 0.00 0.00 78 1013.1
20260502031008 52 175 0.0 0.0 0.00 0.00 0.00 77 1013.1
20260502030507 52 175 0.0 2.0 0.00 0.00 0.00 77 1013.1
20260502030010 52 175 1.0 2.0 0.00 0.00 0.00 77 1012.9
20260502025507 52 175 0.0 0.0 0.00 0.00 0.00 77 1012.9
20260502025010 52 175 0.0 0.0 0.00 0.00 0.00 77 1013.0
20260502024507 52 175 0.0 0.0 0.00 0.00 0.00 76 1013.1
20260502024008 53 175 0.0 0.0 0.00 0.00 0.00 75 1013.4
20260502023509 53 175 0.0 2.0 0.00 0.00 0.00 75 1013.2
20260502023008 53 175 0.0 3.0 0.00 0.00 0.00 75 1013.5
20260502022010 53 188 0.0 2.0 0.00 0.00 0.00 75 1013.3
20260502021507 53 188 0.0 2.0 0.00 0.00 0.00 74 1013.6
20260502021008 53 188 0.0 0.0 0.00 0.00 0.00 73 1013.7
20260502020509 53 188 0.0 4.0 0.00 0.00 0.00 73 1013.6
20260502020009 53 188 0.0 4.0 0.00 0.00 0.00 73 1013.5
20260502015507 53 170 1.0 4.0 0.00 0.00 0.00 73 1013.3
20260502015009 53 152 2.0 4.0 0.00 0.00 0.00 72 1013.4
20260502014507 53 190 1.0 3.0 0.00 0.00 0.00 71 1013.4
20260502014008 53 189 0.0 4.0 0.00 0.00 0.00 70 1013.2
20260502013508 53 189 1.0 4.0 0.00 0.00 0.00 70 1013.2
20260502012507 54 147 0.0 0.0 0.00 0.00 0.00 68 1013.3
20260502012010 54 146 0.0 0.0 0.00 0.00 0.00 67 1013.2
20260502011507 54 146 0.0 0.0 0.00 0.00 0.00 66 1013.3
20260502011009 54 146 0.0 0.0 0.00 0.00 0.00 66 1013.3
20260502010008 55 186 0.0 1.0 0.00 0.00 0.00 65 1013.1
20260502005507 55 186 0.0 3.0 0.00 0.00 0.00 65 1013.2
20260502004507 55 132 1.0 2.0 0.00 0.00 0.00 65 1012.9
20260502004009 55 355 0.0 2.0 0.00 0.00 0.00 65 1013.0
20260502003507 55 207 0.0 3.0 0.00 0.00 0.00 64 1012.9
20260502003008 55 207 0.0 3.0 0.00 0.00 0.00 64 1012.7
20260502002507 56 140 0.0 4.0 0.00 0.00 0.00 63 1012.6
20260502002010 56 146 0.0 1.0 0.00 0.00 0.00 62 1012.6
20260502001507 56 146 0.0 1.0 0.00 0.00 0.00 61 1012.6
20260502001008 57 146 0.0 4.0 0.00 0.00 0.00 60 1012.5
20260502000010 57 288 2.0 7.0 0.00 0.00 0.00 58 1012.4
20260501235507 57 190 1.0 3.0 0.00 0.00 0.00 57 1012.3
20260501234507 59 257 0.0 6.0 0.00 0.00 0.00 54 1012.3
20260501234007 59 257 1.0 6.0 0.00 0.00 0.00 53 1012.3
20260501233509 59 224 2.0 4.0 0.00 0.00 0.00 51 1012.4
20260501233008 60 246 0.0 2.0 0.00 0.00 0.00 50 1012.3
20260501232507 60 245 0.0 3.0 0.00 0.00 0.00 49 1012.3
20260501232010 60 245 1.0 7.0 0.00 0.00 0.00 50 1012.2
20260501231507 60 343 2.0 7.0 0.00 0.00 0.00 48 1012.2
20260501230509 61 211 2.0 6.0 0.00 0.00 0.00 48 1012.1
20260501230008 61 174 0.0 3.0 0.00 0.00 0.00 48 1012.0
20260501225010 61 80 1.0 8.0 0.00 0.00 0.00 47 1012.0
20260501224507 61 156 1.0 8.0 0.00 0.00 0.00 47 1012.0
20260501224008 61 89 2.0 4.0 0.00 0.00 0.00 47 1012.0
20260501223508 61 325 1.0 3.0 0.00 0.00 0.00 48 1012.1
20260501223008 61 331 1.0 4.0 0.00 0.00 0.00 49 1012.1
20260501222507 61 238 2.0 4.0 0.00 0.00 0.00 47 1012.1
20260501221507 62 119 1.0 7.0 0.00 0.00 0.00 47 1012.2
20260501221008 62 96 1.0 7.0 0.00 0.00 0.00 47 1012.2
20260501220509 63 103 3.0 5.0 0.00 0.00 0.00 46 1012.1
20260501220010 63 242 2.0 5.0 0.00 0.00 0.00 46 1012.1
20260501215507 63 142 1.0 9.0 0.00 0.00 0.00 46 1012.1
20260501214507 63 275 2.0 4.0 0.00 0.00 0.00 45 1012.1
20260501214008 63 201 2.0 6.0 0.00 0.00 0.00 45 1012.1
20260501213509 63 192 1.0 9.0 0.00 0.00 0.00 48 1012.1
20260501212507 63 188 3.0 10.0 0.00 0.00 0.00 46 1012.1
20260501211008 63 342 3.0 10.0 0.00 0.00 0.00 46 1012.1
20260501210509 63 49 2.0 10.0 0.00 0.00 0.00 49 1012.1
20260501210010 63 105 3.0 10.0 0.00 0.00 0.00 46 1012.2
20260501205507 64 93 3.0 7.0 0.00 0.00 0.00 50 1012.2
20260501205009 63 188 1.0 9.0 0.00 0.00 0.00 51 1012.2
20260501204508 63 105 3.0 9.0 0.00 0.00 0.00 49 1012.2
20260501204008 64 108 5.0 11.0 0.00 0.00 0.00 48 1012.1
20260501203507 63 244 2.0 11.0 0.00 0.00 0.00 48 1012.1
20260501203010 64 155 1.0 6.0 0.00 0.00 0.00 46 1012.1
20260501202007 64 154 3.0 8.0 0.00 0.00 0.00 47 1012.3
20260501201507 64 142 1.0 6.0 0.00 0.00 0.00 47 1012.3
20260501200507 64 355 3.0 8.0 0.00 0.00 0.00 44 1012.3
20260501200010 64 192 3.0 8.0 0.00 0.00 0.00 44 1012.3
20260501195507 64 233 3.0 7.0 0.00 0.00 0.00 46 1012.3
20260501194507 64 229 1.0 10.0 0.00 0.00 0.00 45 1012.4
20260501194010 64 151 5.0 10.0 0.00 0.00 0.00 46 1012.5
20260501193507 63 246 1.0 5.0 0.00 0.00 0.00 46 1012.5
20260501193008 64 223 2.0 5.0 0.00 0.00 0.00 46 1012.6
20260501192508 63 279 2.0 9.0 0.00 0.00 0.00 48 1012.8
20260501192007 63 263 2.0 9.0 0.00 0.00 0.00 46 1012.8
20260501191506 63 290 2.0 9.0 0.00 0.00 0.00 46 1012.9
20260501190506 63 161 3.0 7.0 0.00 0.00 0.00 44 1013.0
20260501190008 64 328 3.0 8.0 0.00 0.00 0.00 47 1013.1
20260501184506 63 119 2.0 6.0 0.00 0.00 0.00 45 1013.2
20260501183008 62 134 2.0 5.0 0.00 0.00 0.00 47 1013.3
20260501182506 63 360 1.0 6.0 0.00 0.00 0.00 48 1013.4
20260501182008 62 225 2.0 9.0 0.00 0.00 0.00 48 1013.4
20260501181007 63 242 2.0 5.0 0.00 0.00 0.00 50 1013.4
20260501180506 61 85 2.0 5.0 0.00 0.00 0.00 46 1013.3
20260501180009 62 217 2.0 6.0 0.00 0.00 0.00 44 1013.3
20260501175506 62 285 2.0 6.0 0.00 0.00 0.00 45 1013.3
20260501174507 61 158 3.0 5.0 0.00 0.00 0.00 47 1013.4
20260501174011 62 313 3.0 5.0 0.00 0.00 0.00 46 1013.4
20260501173506 62 5 1.0 8.0 0.00 0.00 0.00 46 1013.5
20260501173008 62 298 2.0 8.0 0.00 0.00 0.00 49 1013.5
20260501172506 61 196 3.0 6.0 0.00 0.00 0.00 48 1013.5
20260501172007 60 113 2.0 4.0 0.00 0.00 0.00 46 1013.5
20260501171507 61 230 2.0 5.0 0.00 0.00 0.00 48 1013.6
20260501171007 60 196 3.0 5.0 0.00 0.00 0.00 49 1013.7
20260501170506 60 204 1.0 6.0 0.00 0.00 0.00 51 1013.7
20260501170008 60 186 4.0 6.0 0.00 0.00 0.00 47 1013.7
20260501165506 60 207 2.0 5.0 0.00 0.00 0.00 46 1013.9
20260501165007 60 240 2.0 10.0 0.00 0.00 0.00 48 1013.9
20260501164506 60 301 1.0 6.0 0.00 0.00 0.00 50 1014.0
20260501164009 60 297 2.0 7.0 0.00 0.00 0.00 49 1014.0
20260501163506 60 341 2.0 6.0 0.00 0.00 0.00 48 1014.1
20260501163007 61 88 2.0 4.0 0.00 0.00 0.00 43 1014.1
20260501162507 61 338 0.0 4.0 0.00 0.00 0.00 51 1014.2
20260501162007 60 321 1.0 8.0 0.00 0.00 0.00 56 1014.3
20260501161506 59 320 4.0 8.0 0.00 0.00 0.00 46 1014.4
20260501161009 59 282 2.0 7.0 0.00 0.00 0.00 49 1014.4
20260501160506 60 286 1.0 6.0 0.00 0.00 0.00 48 1014.5
20260501160012 59 191 3.0 8.0 0.00 0.00 0.00 48 1014.6
20260501155506 59 277 2.0 3.0 0.00 0.00 0.00 49 1014.6
20260501154507 59 348 2.0 5.0 0.00 0.00 0.00 49 1014.8
20260501154007 59 9 2.0 9.0 0.00 0.00 0.00 54 1014.8
20260501153506 59 315 2.0 9.0 0.00 0.00 0.00 53 1014.9
20260501153008 58 344 2.0 5.0 0.00 0.00 0.00 54 1014.9